Satellite: HRBE Catalog number: 37855 Epoch time: 15057.37498174 Element set: 999 Inclination: 101.7152 deg RA of node: 215.9270 deg Eccentricity: 0.0200619 Arg of perigee: 036.8575 deg Mean anomaly: 324.6230 deg Mean motion: 14.95173463 rev/day Decay rate: 5.616e-05 rev/day^2 Epoch rev: 18058 Checksum: 322
Satellite: RS-39 Catalog number: 38051 Epoch time: 14288.65876392 Element set: 999 Inclination: 051.5964 deg RA of node: 324.1908 deg Eccentricity: 0.0006422 Arg of perigee: 269.6897 deg Mean anomaly: 186.8903 deg Mean motion: 16.43533377 rev/day Decay rate: 7.0201582e-01 rev/day^2 Epoch rev: 15308 Checksum: 367
Satellite: E-STAR Catalog number: 38079 Epoch time: 15016.13455217 Element set: 999 Inclination: 069.3967 deg RA of node: 125.0648 deg Eccentricity: 0.0013168 Arg of perigee: 047.0341 deg Mean anomaly: 316.5109 deg Mean motion: 16.44007688 rev/day Decay rate: 1.7990388e-01 rev/day^2 Epoch rev: 15619 Checksum: 340
Satellite: GOLIAT Catalog number: 38085 Epoch time: 15047.13271005 Element set: 999 Inclination: 069.4022 deg RA of node: 049.8202 deg Eccentricity: 0.0017770 Arg of perigee: 344.8867 deg Mean anomaly: 016.3100 deg Mean motion: 16.44194733 rev/day Decay rate: 1.5174231e-01 rev/day^2 Epoch rev: 16069 Checksum: 300
Satellite: HORYU-2 Catalog number: 38340 Epoch time: 15057.13305872 Element set: 999 Inclination: 098.3000 deg RA of node: 024.3242 deg Eccentricity: 0.0013594 Arg of perigee: 090.3405 deg Mean anomaly: 269.9360 deg Mean motion: 14.73797861 rev/day Decay rate: 2.019e-05 rev/day^2 Epoch rev: 14917 Checksum: 305
Satellite: RS-40 Catalog number: 38735 Epoch time: 15057.64144062 Element set: 999 Inclination: 082.4783 deg RA of node: 128.9151 deg Eccentricity: 0.0017653 Arg of perigee: 064.1362 deg Mean anomaly: 296.1540 deg Mean motion: 12.42567447 rev/day Decay rate: 4.0e-07 rev/day^2 Epoch rev: 11718 Checksum: 307
Satellite: PROITERES Catalog number: 38756 Epoch time: 15057.81345492 Element set: 999 Inclination: 098.2181 deg RA of node: 155.2759 deg Eccentricity: 0.0011333 Arg of perigee: 293.3627 deg Mean anomaly: 066.6385 deg Mean motion: 14.75580051 rev/day Decay rate: 1.053e-05 rev/day^2 Epoch rev: 13272 Checksum: 318
Satellite: BEESAT-3 Catalog number: 39134 Epoch time: 15056.37986437 Element set: 999 Inclination: 064.8739 deg RA of node: 054.7067 deg Eccentricity: 0.0034596 Arg of perigee: 267.8834 deg Mean anomaly: 091.8327 deg Mean motion: 15.10058958 rev/day Decay rate: 1.0534e-04 rev/day^2 Epoch rev: 10180 Checksum: 348
Satellite: BEESAT-2 Catalog number: 39136 Epoch time: 15057.18774611 Element set: 999 Inclination: 064.8744 deg RA of node: 053.7156 deg Eccentricity: 0.0035131 Arg of perigee: 267.4455 deg Mean anomaly: 092.2645 deg Mean motion: 15.08790024 rev/day Decay rate: 7.683e-05 rev/day^2 Epoch rev: 10190 Checksum: 318
Satellite: LO-75 Catalog number: 39382 Epoch time: 14295.69194059 Element set: 999 Inclination: 040.4713 deg RA of node: 030.2705 deg Eccentricity: 0.0002289 Arg of perigee: 341.7175 deg Mean anomaly: 018.4586 deg Mean motion: 16.19795749 rev/day Decay rate: 7.301741e-02 rev/day^2 Epoch rev: 47082 Checksum: 353
Satellite: ZACUBE-1 Catalog number: 39417 Epoch time: 15057.14760134 Element set: 999 Inclination: 097.7434 deg RA of node: 123.7911 deg Eccentricity: 0.0062197 Arg of perigee: 137.4593 deg Mean anomaly: 223.1462 deg Mean motion: 14.79266302 rev/day Decay rate: 1.875e-05 rev/day^2 Epoch rev: 6821 Checksum: 318
Satellite: TRITON-1 Catalog number: 39427 Epoch time: 15057.40258327 Element set: 999 Inclination: 097.7297 deg RA of node: 114.6127 deg Eccentricity: 0.0117403 Arg of perigee: 160.2175 deg Mean anomaly: 200.3641 deg Mean motion: 14.66297221 rev/day Decay rate: 1.368e-05 rev/day^2 Epoch rev: 6763 Checksum: 308
Satellite: DELFIN3XT Catalog number: 39428 Epoch time: 15057.16734629 Element set: 999 Inclination: 097.7301 deg RA of node: 112.9185 deg Eccentricity: 0.0126417 Arg of perigee: 165.1078 deg Mean anomaly: 195.3905 deg Mean motion: 14.64792036 rev/day Decay rate: 2.371e-05 rev/day^2 Epoch rev: 6748 Checksum: 335
Satellite: GOMX-1 Catalog number: 39430 Epoch time: 15057.71256816 Element set: 999 Inclination: 097.7241 deg RA of node: 108.7395 deg Eccentricity: 0.0154512 Arg of perigee: 177.2149 deg Mean anomaly: 182.9943 deg Mean motion: 14.57709620 rev/day Decay rate: 1.592e-05 rev/day^2 Epoch rev: 6728 Checksum: 339
Satellite: MO-76 Catalog number: 39436 Epoch time: 15057.15207073 Element set: 999 Inclination: 097.7532 deg RA of node: 133.0850 deg Eccentricity: 0.0023412 Arg of perigee: 118.6150 deg Mean anomaly: 241.7433 deg Mean motion: 15.00780073 rev/day Decay rate: 2.3326e-04 rev/day^2 Epoch rev: 6880 Checksum: 296
Satellite: LO-74 Catalog number: 39440 Epoch time: 15057.71336544 Element set: 999 Inclination: 097.7388 deg RA of node: 120.5991 deg Eccentricity: 0.0083708 Arg of perigee: 144.0541 deg Mean anomaly: 216.6339 deg Mean motion: 14.74119838 rev/day Decay rate: 1.636e-05 rev/day^2 Epoch rev: 6805 Checksum: 343
Satellite: PUCPSAT-1 Catalog number: 39442 Epoch time: 15056.74700314 Element set: 999 Inclination: 097.7506 deg RA of node: 129.3164 deg Eccentricity: 0.0034854 Arg of perigee: 129.8821 deg Mean anomaly: 230.5470 deg Mean motion: 14.87873347 rev/day Decay rate: 3.274e-05 rev/day^2 Epoch rev: 6729 Checksum: 330
Satellite: SHINAISAT Catalog number: 39572 Epoch time: 14328.13084988 Element set: 999 Inclination: 064.9728 deg RA of node: 197.0096 deg Eccentricity: 0.0013534 Arg of perigee: 259.7861 deg Mean anomaly: 100.1802 deg Mean motion: 16.45181032 rev/day Decay rate: 2.8848087e-01 rev/day^2 Epoch rev: 4240 Checksum: 336
Satellite: TEIKYOSAT Catalog number: 39576 Epoch time: 14297.85867254 Element set: 999 Inclination: 064.9818 deg RA of node: 300.5833 deg Eccentricity: 0.0008491 Arg of perigee: 317.3597 deg Mean anomaly: 044.3862 deg Mean motion: 16.45008906 rev/day Decay rate: 9.345816e-02 rev/day^2 Epoch rev: 3769 Checksum: 372
Satellite: CO-77 Catalog number: 39577 Epoch time: 14244.78324653 Element set: 999 Inclination: 064.9920 deg RA of node: 123.7668 deg Eccentricity: 0.0014904 Arg of perigee: 269.7208 deg Mean anomaly: 091.1897 deg Mean motion: 16.43552757 rev/day Decay rate: 1.0543803e-01 rev/day^2 Epoch rev: 2938 Checksum: 371
Satellite: SPROUT Catalog number: 39770 Epoch time: 15057.84703357 Element set: 999 Inclination: 097.8690 deg RA of node: 156.2261 deg Eccentricity: 0.0009679 Arg of perigee: 194.3071 deg Mean anomaly: 165.7857 deg Mean motion: 14.83469802 rev/day Decay rate: 2.104e-05 rev/day^2 Epoch rev: 4127 Checksum: 339
Satellite: POPSAT-HIP1 Catalog number: 40028 Epoch time: 15057.74556441 Element set: 999 Inclination: 097.9664 deg RA of node: 317.8789 deg Eccentricity: 0.0014266 Arg of perigee: 178.7353 deg Mean anomaly: 181.3929 deg Mean motion: 14.86448250 rev/day Decay rate: 2.346e-05 rev/day^2 Epoch rev: 3737 Checksum: 352
Satellite: EO-80 Catalog number: 40032 Epoch time: 15057.71955770 Element set: 999 Inclination: 097.9620 deg RA of node: 317.6346 deg Eccentricity: 0.0012215 Arg of perigee: 173.7194 deg Mean anomaly: 186.4177 deg Mean motion: 14.86177335 rev/day Decay rate: 2.273e-05 rev/day^2 Epoch rev: 3737 Checksum: 331
Satellite: VELOX-1 Catalog number: 40057 Epoch time: 15057.73790417 Element set: 999 Inclination: 098.2246 deg RA of node: 134.0332 deg Eccentricity: 0.0010758 Arg of perigee: 227.7854 deg Mean anomaly: 132.2441 deg Mean motion: 14.75265813 rev/day Decay rate: 2.485e-05 rev/day^2 Epoch rev: 3559 Checksum: 312
Satellite: DAURIA DX 1 Catalog number: 40071 Epoch time: 15057.81118434 Element set: 999 Inclination: 098.3694 deg RA of node: 124.6408 deg Eccentricity: 0.0007807 Arg of perigee: 228.3933 deg Mean anomaly: 131.6607 deg Mean motion: 14.80121870 rev/day Decay rate: 1.157e-05 rev/day^2 Epoch rev: 3446 Checksum: 299
Satellite: UKUBE-1 Catalog number: 40074 Epoch time: 15057.76879655 Element set: 999 Inclination: 098.3705 deg RA of node: 125.0552 deg Eccentricity: 0.0003950 Arg of perigee: 232.4176 deg Mean anomaly: 127.6674 deg Mean motion: 14.81623811 rev/day Decay rate: 2.447e-05 rev/day^2 Epoch rev: 3448 Checksum: 321
Satellite: CHASQUI-1 Catalog number: 40117 Epoch time: 15014.73322295 Element set: 999 Inclination: 051.6189 deg RA of node: 112.4445 deg Eccentricity: 0.0004239 Arg of perigee: 337.2783 deg Mean anomaly: 022.7551 deg Mean motion: 16.34635278 rev/day Decay rate: 7.508583e-02 rev/day^2 Epoch rev: 2336 Checksum: 310
Satellite: HODOYOSHI-1 Catalog number: 40299 Epoch time: 15057.80081058 Element set: 999 Inclination: 097.4626 deg RA of node: 140.7452 deg Eccentricity: 0.0013893 Arg of perigee: 153.1912 deg Mean anomaly: 323.9552 deg Mean motion: 15.18247319 rev/day Decay rate: 4.607e-05 rev/day^2 Epoch rev: 1706 Checksum: 313
Satellite: CHUBUSAT-1 Catalog number: 40300 Epoch time: 15057.82012147 Element set: 999 Inclination: 097.4599 deg RA of node: 140.3847 deg Eccentricity: 0.0023413 Arg of perigee: 155.2232 deg Mean anomaly: 321.4137 deg Mean motion: 15.16357205 rev/day Decay rate: 6.415e-05 rev/day^2 Epoch rev: 1704 Checksum: 274
Satellite: QSAT-EOS Catalog number: 40301 Epoch time: 15057.78308873 Element set: 999 Inclination: 097.4568 deg RA of node: 139.9362 deg Eccentricity: 0.0034297 Arg of perigee: 156.6255 deg Mean anomaly: 319.6311 deg Mean motion: 15.14727462 rev/day Decay rate: 1.0807e-04 rev/day^2 Epoch rev: 1701 Checksum: 320
Satellite: TSUBAME Catalog number: 40302 Epoch time: 15057.91084131 Element set: 999 Inclination: 097.4547 deg RA of node: 139.5821 deg Eccentricity: 0.0044777 Arg of perigee: 157.3402 deg Mean anomaly: 322.3997 deg Mean motion: 15.11644583 rev/day Decay rate: 6.583e-05 rev/day^2 Epoch rev: 1700 Checksum: 308
